INTELSAT 15 (IS-15) (36106 NORAD) Tracking and Keplerian Element Data

This shows tracking and keplerian element data for the satellite.

Feedback or suggestion? Click here.




ElementValue
Catalog36106
NameINTELSAT 15 (IS-15)
Epoch Orbit3310
Epoch Day347.89527183
Epoch Year2018
RAAN20.0046
Inclination0.0062
Eccentricity0.0002106
Argument of Perigee235.1789
Mean Anonmoly234.794
Mean Motion1.00272522
Decay Rate-1.76E-06
L11 36106U 09067A 18347.89527183 -.00000176 00000-0 00000-0 0 9999
L22 36106 0.0062 20.0046 0002106 235.1789 234.7940 1.00272522 33109

Live tracking and technical data element details for INTELSAT 15 (IS-15) (NORAD 36106). INTELSAT 15 (IS-15) can be tracked NOW for your location showing map with azimuth and elevation plus other details from your city location.

Track the satellite on the map from your city or location and see movement details for azimuth, elevation, latitude, longitude, range, height, and movement on the map or in text.







IsCatalogInMostPopularTable: catalog: 36106, numindb: 50
Update: records affected: 1



GetName: 36106 INTELSAT 15 (IS-15)

Hit Count: updated at: Sun, 16 Dec 2018 11:40:37 GMT